Location: Newark
(46.6333°N, 8.8333°E)
Time: 10:57:14
(UTC+00:00)

N. Korean satellite - Visible Passes

Search period start: 17 October 2019 00:00
Search period end: 27 October 2019 00:00
Orbit: 455 x 508 km, 97.2° (Epoch: 16 October)

Date Brightness Start Highest point End Pass type
(mag) Time Alt. Az. Time Alt. Az. Time Alt. Az.
17 Oct 9.8 04:31:49 10° NE 04:34:25 19° E 04:37:01 10° SE visible
19 Oct 7.3 05:13:50 10° NNE 05:17:24 60° ESE 05:21:00 10° S visible
19 Oct 9.9 17:26:34 10° SW 17:28:51 17° W 17:31:10 10° NW visible
20 Oct 8.9 04:48:49 10° NNE 04:52:01 29° E 04:55:15 10° SSE visible
20 Oct 8.6 17:00:17 10° SSW 17:03:23 32° W 17:06:33 10° NNW visible
21 Oct 10.1 04:24:18 10° NE 04:26:34 16° E 04:28:50 10° SE visible
22 Oct 10.5 17:45:46 10° W 17:46:30 10° W 17:47:13 10° WNW visible
23 Oct 7.8 05:06:02 10° NNE 05:09:34 48° E 05:13:08 10° S visible
23 Oct 9.6 17:18:19 10° SW 17:20:57 20° W 17:23:37 10° NW visible
24 Oct 9.3 04:41:07 10° NE 04:44:10 24° E 04:47:13 10° SSE visible
24 Oct 8.1 16:52:14 10° S 16:55:30 41° W 16:58:49 10° NNW visible
25 Oct 10.2 04:16:52 10° ENE 04:18:40 13° E 04:20:27 10° ESE visible
26 Oct 6.8 05:23:22 10° NNE 05:27:03 81° ESE 05:30:45 10° S visible
26 Oct 10.1 17:36:49 10° WSW 17:38:32 13° W 17:40:15 10° WNW visible
